Weather History for Aberdeen, SD

Change the Weather History Date:

Wednesday, January 30, 2013

  Actual Average Record
Temperature  
Mean Temperature 5 °F 13 °F  
Max Temperature 20 °F 24 °F 55 °F (1931)
Min Temperature -11 °F 2 °F -32 °F (1916)
Degree Days  
Heating Degree Days 60 52  
Month to date heating degree days 1507 1586  
Since 1 July heating degree days 4931 5077  
Cooling Degree Days 0 0  
Month to date cooling degree days 0 0  
Year to date cooling degree days 0 0  
Moisture  
Dew Point -3 °F    
Average Humidity 74    
Maximum Humidity 84    
Minimum Humidity 64    
Precipitation  
Precipitation T in 0.02 in 0.50 in (1929)
Month to date precipitation 0.78 0.46  
Year to date precipitation 0.78 0.46  
Snow  
Snow T in - - ()
Month to date snowfall 9.6  
Since 1 July snowfall 23.5  
Snow Depth 7.00 in    
Sea Level Pressure  
Sea Level Pressure 29.97 in    
Wind  
Wind Speed 16 mph (NW)    
Max Wind Speed 23 mph    
Max Gust Speed 31 mph    
Visibility 6 miles    
Events Snow    
T = Trace of Precipitation, MM = Missing Value Source: NWS Daily Summary

Daily Weather History Graph

Daily Weather History Graph

Search for Another Location

Airport:

Trip Planner

Search our weather history database for the weather conditions in past years. The results will help you decide how hot, cold, wet, or windy it might be!

Date:

Astronomy

Jan. 30, 2013 Rise Set
Actual Time 7:56 AM CST 5:38 PM CST
Civil Twilight 7:24 AM CST 6:09 PM CST
Nautical Twilight 6:49 AM CST 6:45 PM CST
Astronomical Twilight 6:14 AM CST 7:20 PM CST
Moon 9:53 PM CST 9:11 AM CST
Length of Visible Light 10h 44m
Length of Day
9h 41m
Waning Gibbous, 87% of the Moon is Illuminated
Jan 30
Waning Gibbous
Feb 3
Last Quarter
Feb 10
New
Feb 17
First Quarter
Feb 25
Full

Hourly Weather History & Observations

Time (CST) Temp. Windchill Dew Point Humidity Pressure Visibility Wind Dir Wind Speed Gust Speed Precip Events Conditions
12:20 AM 19.4 °F 6.6 °F 15.8 °F 86% 29.93 in 9.0 mi NNW 12.7 mph - N/A   Overcast
12:53 AM 19.9 °F 3.9 °F 14.0 °F 78% 29.98 in 5.0 mi North 20.7 mph 29.9 mph 0.00 in Snow Light Snow
1:53 AM 18.0 °F 1.3 °F 12.0 °F 78% 29.98 in 6.0 mi NNW 20.7 mph 29.9 mph 0.00 in   Haze
2:53 AM 15.1 °F -2.5 °F 8.1 °F 74% 29.99 in 8.0 mi NNW 20.7 mph 29.9 mph 0.00 in   Overcast
3:53 AM 14.0 °F -3.9 °F 7.0 °F 74% 29.98 in 10.0 mi NNW 20.7 mph - N/A   Overcast
4:50 AM 12.2 °F -5.3 °F 6.8 °F 79% 29.91 in 10.0 mi North 18.4 mph - N/A   Overcast
4:53 AM 12.0 °F -4.5 °F 6.1 °F 77% 29.99 in 10.0 mi North 16.1 mph - N/A   Overcast
5:03 AM 12.2 °F -4.8 °F 6.8 °F 79% 29.92 in 8.0 mi NNW 17.3 mph - 0.00 in Snow Light Snow
5:53 AM 10.0 °F -8.6 °F 3.0 °F 73% 30.01 in 10.0 mi NNW 19.6 mph - 0.00 in   Overcast
6:53 AM 6.1 °F -14.3 °F -0.9 °F 73% 30.01 in 10.0 mi NNW 20.7 mph 27.6 mph N/A   Overcast
7:41 AM 5.0 °F -14.7 °F -2.2 °F 72% 29.94 in 10.0 mi NNW 18.4 mph - N/A   Overcast
7:53 AM 5.0 °F -13.6 °F -0.9 °F 76% 30.02 in 10.0 mi NW 16.1 mph - N/A   Overcast
8:40 AM 3.2 °F -17.6 °F -2.2 °F 78% 29.94 in 1.8 mi NW 19.6 mph - 0.00 in Snow Light Snow
8:53 AM 3.0 °F -17.8 °F -2.9 °F 76% 30.02 in 1.5 mi NW 19.6 mph - 0.00 in Snow Light Snow
9:17 AM 3.2 °F -17.6 °F -2.2 °F 78% 29.94 in 2.5 mi NW 19.6 mph - 0.00 in Snow Light Snow
9:24 AM 3.2 °F -17.1 °F -2.2 °F 78% 29.94 in 3.0 mi NW 18.4 mph - 0.00 in Snow Light Snow
9:50 AM 3.2 °F -17.1 °F -2.2 °F 78% 29.94 in 2.5 mi NW 18.4 mph - 0.00 in Snow Light Snow
9:53 AM 3.0 °F -17.3 °F -4.0 °F 73% 30.01 in 2.0 mi NW 18.4 mph - 0.00 in Snow Light Snow
10:01 AM 1.4 °F -19.9 °F -4.0 °F 78% 29.93 in 1.5 mi NW 19.6 mph - 0.00 in Snow Light Snow
10:20 AM 1.4 °F -17.6 °F -2.2 °F 85% 29.93 in 1.0 mi NW 15.0 mph - 0.00 in Snow Light Snow
10:39 AM 1.4 °F -19.4 °F -2.2 °F 85% 29.93 in 1.0 mi NW 18.4 mph - 0.00 in Snow Light Snow
10:53 AM 3.0 °F -16.7 °F -4.0 °F 73% 30.01 in 1.5 mi NW 17.3 mph - 0.00 in Snow Light Snow
11:07 AM 3.2 °F -15.9 °F -2.2 °F 78% 29.92 in 2.0 mi NNW 16.1 mph - 0.00 in Snow Light Snow
11:25 AM 3.2 °F -17.1 °F -2.2 °F 78% 29.92 in 1.8 mi NNW 18.4 mph - 0.00 in Snow Light Snow
11:34 AM 3.2 °F -16.5 °F -2.2 °F 78% 29.92 in 2.0 mi NNW 17.3 mph - 0.00 in Snow Light Snow
11:48 AM 3.2 °F -15.9 °F -2.2 °F 78% 29.91 in 3.0 mi NW 16.1 mph - 0.00 in Snow Light Snow
11:53 AM 3.9 °F -15.6 °F -2.0 °F 76% 29.99 in 4.0 mi NW 17.3 mph - 0.00 in   Overcast
12:23 PM 5.0 °F -13.6 °F -2.2 °F 72% 29.91 in 9.0 mi NW 16.1 mph - 0.00 in   Overcast
12:53 PM 5.0 °F -14.2 °F -2.9 °F 70% 29.98 in 6.0 mi NNW 17.3 mph - 0.00 in   Mostly Cloudy
1:27 PM 5.0 °F -13.6 °F -2.2 °F 72% 29.89 in 3.0 mi NNW 16.1 mph - 0.00 in Snow Light Snow
1:35 PM 5.0 °F -14.7 °F -2.2 °F 72% 29.89 in 2.5 mi NW 18.4 mph - 0.00 in Snow Light Snow
1:42 PM 5.0 °F -13.0 °F -2.2 °F 72% 29.89 in 3.0 mi NNW 15.0 mph - 0.00 in Snow Light Snow
1:53 PM 3.9 °F -15.6 °F -2.9 °F 73% 29.97 in 4.0 mi NW 17.3 mph - 0.00 in Snow Light Snow
2:11 PM 3.2 °F -15.9 °F -4.0 °F 72% 29.88 in 2.0 mi NNW 16.1 mph - 0.00 in Snow Light Snow
2:21 PM 3.2 °F -15.9 °F -4.0 °F 72% 29.89 in 1.5 mi NW 16.1 mph - 0.00 in Snow Light Snow
2:32 PM 3.2 °F -16.5 °F -5.8 °F 66% 29.89 in 3.0 mi NW 17.3 mph - 0.00 in Snow Light Snow
2:53 PM 1.9 °F -17.5 °F -6.0 °F 69% 29.97 in 6.0 mi NW 16.1 mph - 0.00 in   Overcast
3:53 PM 1.0 °F -15.8 °F -7.1 °F 69% 29.97 in 8.0 mi NNW 11.5 mph - 0.00 in   Overcast
4:53 PM -0.0 °F -18.7 °F -9.0 °F 66% 29.99 in 10.0 mi NNW 13.8 mph - N/A   Clear
5:53 PM -4.0 °F -20.2 °F -11.9 °F 69% 30.01 in 10.0 mi NW 9.2 mph - N/A   Clear
6:53 PM -5.1 °F -20.4 °F -14.1 °F 65% 30.01 in 10.0 mi NW 8.1 mph - N/A   Clear
7:53 PM -7.1 °F -23.9 °F -16.1 °F 65% 30.03 in 10.0 mi NW 9.2 mph - N/A   Clear
8:53 PM -8.0 °F -28.8 °F -17.0 °F 65% 30.04 in 10.0 mi NW 13.8 mph - N/A   Clear
9:53 PM -9.0 °F -28.4 °F -18.0 °F 65% 30.06 in 10.0 mi NW 11.5 mph - N/A   Clear
10:53 PM -9.9 °F -27.5 °F -18.9 °F 65% 30.07 in 10.0 mi NW 9.2 mph - N/A   Scattered Clouds
11:53 PM -11.0 °F -30.9 °F -18.9 °F 68% 30.07 in 10.0 mi NNW 11.5 mph - N/A   Scattered Clouds